Time,TemperatureF,DewpointF,PressureIn,WindDirection,WindDirectionDegrees,WindSpeedMPH,WindSpeedGustMPH,Humidity,HourlyPrecipIn,Conditions,Clouds,dailyrainin,SoftwareType,DateUTC
2013-02-13 00:01:00,41.0,37.0,30.32,SE,127,0.0,-999.0,85,-99.99,,,-99.99,,2013-02-13 08:01:00,
2013-02-13 00:11:00,41.0,37.0,30.32,SE,127,0.0,-999.0,85,-99.99,,,-99.99,,2013-02-13 08:11:00,
2013-02-13 00:21:00,41.0,37.0,30.32,SE,127,0.0,-999.0,84,-99.99,,,-99.99,,2013-02-13 08:21:00,
2013-02-13 00:31:00,41.0,37.0,30.32,SE,127,0.0,-999.0,85,-99.99,,,-99.99,,2013-02-13 08:31:00,
2013-02-13 00:42:00,41.0,37.0,30.32,SE,127,0.0,-999.0,85,-99.99,,,-99.99,,2013-02-13 08:42:00,
2013-02-13 00:52:00,41.0,37.0,30.32,SE,127,0.0,-999.0,85,-99.99,,,-99.99,,2013-02-13 08:52:00,
2013-02-13 01:01:00,40.0,36.0,30.32,SE,128,0.0,-999.0,86,-99.99,,,-99.99,,2013-02-13 09:01:00,
2013-02-13 01:11:00,40.0,36.0,30.32,SE,128,0.0,-999.0,86,-99.99,,,-99.99,,2013-02-13 09:11:00,
2013-02-13 01:21:00,40.0,36.0,30.32,SE,127,0.0,-999.0,86,-99.99,,,-99.99,,2013-02-13 09:21:00,
2013-02-13 01:31:00,40.0,36.0,30.32,SE,128,0.0,-999.0,87,-99.99,,,-99.99,,2013-02-13 09:31:00,
2013-02-13 01:41:00,39.0,35.0,30.32,SE,127,0.0,-999.0,87,-99.99,,,-99.99,,2013-02-13 09:41:00,
2013-02-13 01:51:00,39.0,35.0,30.32,SE,127,0.0,-999.0,87,-99.99,,,-99.99,,2013-02-13 09:51:00,
2013-02-13 02:01:00,39.0,36.0,30.32,SE,127,0.0,-999.0,88,-99.99,,,-99.99,,2013-02-13 10:01:00,
2013-02-13 02:11:00,39.0,36.0,30.32,SE,127,0.0,-999.0,88,-99.99,,,-99.99,,2013-02-13 10:11:00,
2013-02-13 02:21:00,39.0,36.0,30.32,SE,127,0.0,-999.0,88,-99.99,,,-99.99,,2013-02-13 10:21:00,
2013-02-13 02:31:00,38.0,35.0,30.32,SE,128,0.0,-999.0,88,-99.99,,,-99.99,,2013-02-13 10:31:00,
2013-02-13 02:41:00,38.0,35.0,30.32,SE,127,0.0,-999.0,88,-99.99,,,-99.99,,2013-02-13 10:41:00,
2013-02-13 02:51:00,38.0,35.0,30.32,SE,127,0.0,-999.0,88,-99.99,,,-99.99,,2013-02-13 10:51:00,
2013-02-13 03:01:00,38.0,35.0,30.32,SE,127,0.0,-999.0,88,-99.99,,,-99.99,,2013-02-13 11:01:00,
2013-02-13 03:11:00,38.0,35.0,30.32,SE,127,0.0,-999.0,88,-99.99,,,-99.99,,2013-02-13 11:11:00,
2013-02-13 03:22:00,38.0,35.0,30.32,SE,128,0.0,-999.0,88,-99.99,,,-99.99,,2013-02-13 11:22:00,
2013-02-13 03:32:00,37.0,34.0,30.31,SE,128,0.0,-999.0,88,-99.99,,,-99.99,,2013-02-13 11:32:00,
2013-02-13 03:42:00,37.0,34.0,30.31,SE,128,0.0,-999.0,89,-99.99,,,-99.99,,2013-02-13 11:42:00,
2013-02-13 03:52:00,37.0,34.0,30.31,SE,128,0.0,-999.0,89,-99.99,,,-99.99,,2013-02-13 11:52:00,
2013-02-13 04:02:00,37.0,34.0,30.31,SE,128,0.0,-999.0,89,-99.99,,,-99.99,,2013-02-13 12:02:00,
2013-02-13 04:11:00,37.0,34.0,30.31,SE,128,0.0,-999.0,90,-99.99,,,-99.99,,2013-02-13 12:11:00,
2013-02-13 04:21:00,37.0,34.0,30.31,SE,128,0.0,-999.0,90,-99.99,,,-99.99,,2013-02-13 12:21:00,
2013-02-13 04:32:00,37.0,34.0,30.31,SE,127,0.0,-999.0,90,-99.99,,,-99.99,,2013-02-13 12:32:00,
2013-02-13 04:42:00,36.0,33.0,30.31,SE,128,0.0,-999.0,90,-99.99,,,-99.99,,2013-02-13 12:42:00,
2013-02-13 04:51:00,36.0,33.0,30.31,SE,128,0.0,-999.0,90,-99.99,,,-99.99,,2013-02-13 12:51:00,
2013-02-13 05:02:00,36.0,33.0,30.30,SE,127,0.0,-999.0,90,-99.99,,,-99.99,,2013-02-13 13:02:00,
2013-02-13 05:11:00,36.0,33.0,30.30,SE,127,0.0,-999.0,90,-99.99,,,-99.99,,2013-02-13 13:11:00,
2013-02-13 05:21:00,36.0,33.0,30.30,SE,127,0.0,-999.0,90,-99.99,,,-99.99,,2013-02-13 13:21:00,
2013-02-13 05:31:00,36.0,34.0,30.31,SE,127,0.0,-999.0,91,-99.99,,,-99.99,,2013-02-13 13:31:00,
2013-02-13 05:41:00,36.0,34.0,30.31,SE,128,0.0,-999.0,91,-99.99,,,-99.99,,2013-02-13 13:41:00,
2013-02-13 05:51:00,36.0,34.0,30.31,SE,128,0.0,-999.0,91,-99.99,,,-99.99,,2013-02-13 13:51:00,
2013-02-13 06:01:00,36.0,34.0,30.31,SE,128,0.0,-999.0,93,-99.99,,,-99.99,,2013-02-13 14:01:00,
2013-02-13 06:11:00,36.0,34.0,30.31,SE,128,0.0,-999.0,93,-99.99,,,-99.99,,2013-02-13 14:11:00,
2013-02-13 06:21:00,36.0,34.0,30.31,SE,128,0.0,-999.0,93,-99.99,,,-99.99,,2013-02-13 14:21:00,
2013-02-13 06:31:00,36.0,34.0,30.31,SE,127,0.0,-999.0,92,-99.99,,,-99.99,,2013-02-13 14:31:00,
2013-02-13 06:41:00,35.0,33.0,30.31,SE,127,0.0,-999.0,92,-99.99,,,-99.99,,2013-02-13 14:41:00,
2013-02-13 06:52:00,35.0,33.0,30.31,SE,127,0.0,-999.0,92,-99.99,,,-99.99,,2013-02-13 14:52:00,
2013-02-13 07:01:00,35.0,33.0,30.31,SE,128,0.0,-999.0,92,-99.99,,,-99.99,,2013-02-13 15:01:00,
2013-02-13 07:11:00,35.0,33.0,30.31,SE,128,0.0,-999.0,92,-99.99,,,-99.99,,2013-02-13 15:11:00,
2013-02-13 07:21:00,35.0,33.0,30.31,SE,128,0.0,-999.0,92,-99.99,,,-99.99,,2013-02-13 15:21:00,
2013-02-13 07:31:00,35.0,33.0,30.32,SE,128,0.0,-999.0,92,-99.99,,,-99.99,,2013-02-13 15:31:00,
2013-02-13 07:42:00,35.0,33.0,30.32,SE,128,0.0,-999.0,92,-99.99,,,-99.99,,2013-02-13 15:42:00,
2013-02-13 07:51:00,35.0,33.0,30.32,SE,127,0.0,-999.0,92,-99.99,,,-99.99,,2013-02-13 15:51:00,
2013-02-13 08:01:00,35.0,33.0,30.32,SE,127,0.0,-999.0,92,-99.99,,,-99.99,,2013-02-13 16:01:00,
2013-02-13 08:11:00,35.0,33.0,30.32,SE,127,0.0,-999.0,93,-99.99,,,-99.99,,2013-02-13 16:11:00,
2013-02-13 08:21:00,35.0,33.0,30.32,SE,127,0.0,-999.0,93,-99.99,,,-99.99,,2013-02-13 16:21:00,
2013-02-13 08:31:00,36.0,34.0,30.33,SE,128,0.0,-999.0,94,-99.99,,,-99.99,,2013-02-13 16:31:00,
2013-02-13 08:41:00,36.0,34.0,30.33,SE,128,0.0,-999.0,94,-99.99,,,-99.99,,2013-02-13 16:41:00,
2013-02-13 08:51:00,38.0,37.0,30.33,SE,127,0.0,-999.0,95,-99.99,,,-99.99,,2013-02-13 16:51:00,
2013-02-13 09:01:00,41.0,40.0,30.32,SE,128,0.0,-999.0,95,-99.99,,,-99.99,,2013-02-13 17:01:00,
2013-02-13 09:11:00,41.0,40.0,30.32,SE,128,0.0,-999.0,95,-99.99,,,-99.99,,2013-02-13 17:11:00,
2013-02-13 09:21:00,42.0,40.0,30.32,SE,128,0.0,-999.0,91,-99.99,,,-99.99,,2013-02-13 17:21:00,
2013-02-13 09:31:00,45.0,41.0,30.32,SE,128,0.0,-999.0,85,-99.99,,,-99.99,,2013-02-13 17:31:00,
2013-02-13 09:41:00,45.0,41.0,30.32,SE,128,0.0,-999.0,85,-99.99,,,-99.99,,2013-02-13 17:41:00,
2013-02-13 09:52:00,47.0,41.0,30.32,SE,128,0.0,-999.0,80,-99.99,,,-99.99,,2013-02-13 17:52:00,
2013-02-13 10:01:00,49.0,41.0,30.33,SE,128,0.0,-999.0,75,-99.99,,,-99.99,,2013-02-13 18:01:00,
2013-02-13 10:11:00,49.0,41.0,30.33,SE,128,0.0,-999.0,75,-99.99,,,-99.99,,2013-02-13 18:11:00,
2013-02-13 10:22:00,50.0,41.0,30.34,SE,127,1.0,-999.0,72,-99.99,,,-99.99,,2013-02-13 18:22:00,
2013-02-13 10:32:00,50.0,41.0,30.34,SE,127,1.0,-999.0,72,-99.99,,,-99.99,,2013-02-13 18:32:00,
2013-02-13 10:41:00,50.0,41.0,30.34,SE,127,1.0,-999.0,72,-99.99,,,-99.99,,2013-02-13 18:41:00,
2013-02-13 10:51:00,53.0,42.0,30.33,SE,128,0.0,-999.0,65,-99.99,,,-99.99,,2013-02-13 18:51:00,
2013-02-13 11:01:00,54.0,41.0,30.33,SE,129,1.0,-999.0,62,-99.99,,,-99.99,,2013-02-13 19:01:00,
2013-02-13 11:11:00,55.0,42.0,30.33,SE,129,0.0,-999.0,61,-99.99,,,-99.99,,2013-02-13 19:11:00,
2013-02-13 11:21:00,55.0,42.0,30.33,SE,129,0.0,-999.0,61,-99.99,,,-99.99,,2013-02-13 19:21:00,
2013-02-13 11:31:00,56.0,41.0,30.32,SE,129,1.0,-999.0,58,-99.99,,,-99.99,,2013-02-13 19:31:00,
2013-02-13 11:41:00,56.0,41.0,30.32,SE,129,1.0,-999.0,58,-99.99,,,-99.99,,2013-02-13 19:41:00,
2013-02-13 11:51:00,57.0,42.0,30.32,WNW,298,2.0,-999.0,57,-99.99,,,-99.99,,2013-02-13 19:51:00,
2013-02-13 12:01:00,58.0,42.0,30.31,WSW,253,2.0,-999.0,56,-99.99,,,-99.99,,2013-02-13 20:01:00,
2013-02-13 12:11:00,59.0,42.0,30.30,SSW,199,1.0,-999.0,54,-99.99,,,-99.99,,2013-02-13 20:11:00,
2013-02-13 12:21:00,59.0,42.0,30.30,SSW,199,1.0,-999.0,54,-99.99,,,-99.99,,2013-02-13 20:21:00,
2013-02-13 12:31:00,60.0,42.0,30.30,SSW,207,1.0,-999.0,52,-99.99,,,-99.99,,2013-02-13 20:31:00,
2013-02-13 12:41:00,60.0,42.0,30.29,WNW,285,1.0,-999.0,52,-99.99,,,-99.99,,2013-02-13 20:41:00,
2013-02-13 12:52:00,60.0,42.0,30.29,WNW,285,1.0,-999.0,52,-99.99,,,-99.99,,2013-02-13 20:52:00,
2013-02-13 13:01:00,61.0,43.0,30.28,SE,126,1.0,-999.0,51,-99.99,,,-99.99,,2013-02-13 21:01:00,
2013-02-13 13:11:00,61.0,43.0,30.28,SE,126,1.0,-999.0,51,-99.99,,,-99.99,,2013-02-13 21:11:00,
2013-02-13 13:21:00,61.0,43.0,30.27,WSW,242,2.0,-999.0,51,-99.99,,,-99.99,,2013-02-13 21:21:00,
2013-02-13 13:31:00,61.0,42.0,30.27,SSE,162,2.0,-999.0,50,-99.99,,,-99.99,,2013-02-13 21:31:00,
2013-02-13 13:42:00,62.0,43.0,30.25,East,90,1.0,-999.0,49,-99.99,,,-99.99,,2013-02-13 21:42:00,
2013-02-13 13:52:00,62.0,43.0,30.25,East,90,1.0,-999.0,49,-99.99,,,-99.99,,2013-02-13 21:52:00,
2013-02-13 14:02:00,62.0,42.0,30.24,SSE,168,1.0,-999.0,47,-99.99,,,-99.99,,2013-02-13 22:02:00,
2013-02-13 14:11:00,62.0,42.0,30.24,SW,214,1.0,-999.0,47,-99.99,,,-99.99,,2013-02-13 22:11:00,
2013-02-13 14:21:00,62.0,42.0,30.24,SW,214,1.0,-999.0,47,-99.99,,,-99.99,,2013-02-13 22:21:00,
2013-02-13 14:31:00,63.0,42.0,30.23,West,270,1.0,-999.0,47,-99.99,,,-99.99,,2013-02-13 22:31:00,
2013-02-13 14:42:00,63.0,42.0,30.23,West,270,1.0,-999.0,47,-99.99,,,-99.99,,2013-02-13 22:42:00,
2013-02-13 14:51:00,63.0,42.0,30.23,West,270,1.0,-999.0,47,-99.99,,,-99.99,,2013-02-13 22:51:00,
2013-02-13 15:01:00,63.0,42.0,30.22,SW,215,2.0,-999.0,46,-99.99,,,-99.99,,2013-02-13 23:01:00,
2013-02-13 15:11:00,63.0,42.0,30.22,South,174,1.0,-999.0,46,-99.99,,,-99.99,,2013-02-13 23:11:00,
2013-02-13 15:21:00,63.0,42.0,30.22,South,174,1.0,-999.0,46,-99.99,,,-99.99,,2013-02-13 23:21:00,
2013-02-13 15:31:00,63.0,42.0,30.22,South,177,1.0,-999.0,46,-99.99,,,-99.99,,2013-02-13 23:31:00,
2013-02-13 15:41:00,63.0,42.0,30.22,South,177,1.0,-999.0,46,-99.99,,,-99.99,,2013-02-13 23:41:00,
2013-02-13 15:52:00,63.0,42.0,30.22,South,177,1.0,-999.0,46,-99.99,,,-99.99,,2013-02-13 23:52:00,
2013-02-13 16:01:00,63.0,41.0,30.22,SSE,158,1.0,-999.0,45,-99.99,,,-99.99,,2013-02-14 00:01:00,
2013-02-13 16:11:00,63.0,41.0,30.22,SSE,158,1.0,-999.0,45,-99.99,,,-99.99,,2013-02-14 00:11:00,
2013-02-13 16:21:00,64.0,43.0,30.21,SSE,158,1.0,-999.0,46,-99.99,,,-99.99,,2013-02-14 00:21:00,
2013-02-13 16:31:00,64.0,43.0,30.20,ENE,66,1.0,-999.0,46,-99.99,,,-99.99,,2013-02-14 00:31:00,
2013-02-13 16:42:00,64.0,43.0,30.20,ENE,66,1.0,-999.0,46,-99.99,,,-99.99,,2013-02-14 00:42:00,
2013-02-13 16:51:00,64.0,43.0,30.20,SSE,147,0.0,-999.0,46,-99.99,,,-99.99,,2013-02-14 00:51:00,
2013-02-13 17:01:00,63.0,42.0,30.20,SE,126,0.0,-999.0,47,-99.99,,,-99.99,,2013-02-14 01:01:00,
2013-02-13 17:11:00,63.0,42.0,30.20,SE,126,0.0,-999.0,47,-99.99,,,-99.99,,2013-02-14 01:11:00,
2013-02-13 17:21:00,63.0,43.0,30.20,SE,128,0.0,-999.0,48,-99.99,,,-99.99,,2013-02-14 01:21:00,
2013-02-13 17:31:00,62.0,43.0,30.20,SE,128,0.0,-999.0,49,-99.99,,,-99.99,,2013-02-14 01:31:00,
2013-02-13 17:41:00,62.0,43.0,30.20,SE,128,0.0,-999.0,49,-99.99,,,-99.99,,2013-02-14 01:41:00,
2013-02-13 17:51:00,62.0,43.0,30.20,SE,128,0.0,-999.0,50,-99.99,,,-99.99,,2013-02-14 01:51:00,
2013-02-13 18:01:00,61.0,43.0,30.20,SE,128,0.0,-999.0,52,-99.99,,,-99.99,,2013-02-14 02:01:00,
2013-02-13 18:11:00,60.0,43.0,30.20,SE,128,0.0,-999.0,53,-99.99,,,-99.99,,2013-02-14 02:11:00,
2013-02-13 18:21:00,60.0,43.0,30.20,SE,128,0.0,-999.0,53,-99.99,,,-99.99,,2013-02-14 02:21:00,
2013-02-13 18:31:00,59.0,44.0,30.20,SE,128,0.0,-999.0,57,-99.99,,,-99.99,,2013-02-14 02:31:00,
2013-02-13 18:41:00,59.0,44.0,30.20,SE,128,0.0,-999.0,57,-99.99,,,-99.99,,2013-02-14 02:41:00,
2013-02-13 18:51:00,59.0,44.0,30.20,SE,128,0.0,-999.0,57,-99.99,,,-99.99,,2013-02-14 02:51:00,
2013-02-13 19:02:00,57.0,44.0,30.21,SE,128,0.0,-999.0,61,-99.99,,,-99.99,,2013-02-14 03:02:00,
2013-02-13 19:11:00,55.0,43.0,30.21,SE,128,0.0,-999.0,63,-99.99,,,-99.99,,2013-02-14 03:11:00,
2013-02-13 19:21:00,55.0,43.0,30.21,SE,128,0.0,-999.0,63,-99.99,,,-99.99,,2013-02-14 03:21:00,
2013-02-13 19:31:00,54.0,43.0,30.20,SE,128,0.0,-999.0,66,-99.99,,,-99.99,,2013-02-14 03:31:00,
2013-02-13 19:42:00,54.0,43.0,30.20,SE,128,0.0,-999.0,66,-99.99,,,-99.99,,2013-02-14 03:42:00,
2013-02-13 19:51:00,53.0,43.0,30.21,SE,128,0.0,-999.0,68,-99.99,,,-99.99,,2013-02-14 03:51:00,
2013-02-13 20:01:00,52.0,43.0,30.21,SE,128,0.0,-999.0,70,-99.99,,,-99.99,,2013-02-14 04:01:00,
2013-02-13 20:11:00,51.0,42.0,30.21,SE,128,0.0,-999.0,72,-99.99,,,-99.99,,2013-02-14 04:11:00,
2013-02-13 20:21:00,51.0,42.0,30.21,SE,128,0.0,-999.0,72,-99.99,,,-99.99,,2013-02-14 04:21:00,
2013-02-13 20:31:00,50.0,42.0,30.21,SE,128,0.0,-999.0,74,-99.99,,,-99.99,,2013-02-14 04:31:00,
2013-02-13 20:41:00,50.0,42.0,30.21,SE,128,0.0,-999.0,74,-99.99,,,-99.99,,2013-02-14 04:41:00,
2013-02-13 20:51:00,50.0,42.0,30.21,SE,128,0.0,-999.0,74,-99.99,,,-99.99,,2013-02-14 04:51:00,
2013-02-13 21:01:00,49.0,42.0,30.21,SE,128,0.0,-999.0,76,-99.99,,,-99.99,,2013-02-14 05:01:00,
2013-02-13 21:11:00,49.0,42.0,30.21,SE,128,0.0,-999.0,76,-99.99,,,-99.99,,2013-02-14 05:11:00,
2013-02-13 21:21:00,48.0,41.0,30.21,SE,128,0.0,-999.0,78,-99.99,,,-99.99,,2013-02-14 05:21:00,
2013-02-13 21:31:00,48.0,42.0,30.21,SE,128,0.0,-999.0,79,-99.99,,,-99.99,,2013-02-14 05:31:00,
2013-02-13 21:41:00,48.0,42.0,30.21,SE,128,0.0,-999.0,79,-99.99,,,-99.99,,2013-02-14 05:41:00,
2013-02-13 21:52:00,47.0,41.0,30.21,SE,128,0.0,-999.0,80,-99.99,,,-99.99,,2013-02-14 05:52:00,
2013-02-13 22:01:00,47.0,41.0,30.21,SE,128,0.0,-999.0,80,-99.99,,,-99.99,,2013-02-14 06:01:00,
2013-02-13 22:11:00,46.0,41.0,30.21,SE,128,0.0,-999.0,81,-99.99,,,-99.99,,2013-02-14 06:11:00,
2013-02-13 22:21:00,46.0,41.0,30.21,SE,128,0.0,-999.0,81,-99.99,,,-99.99,,2013-02-14 06:21:00,
2013-02-13 22:31:00,46.0,41.0,30.22,SE,128,0.0,-999.0,82,-99.99,,,-99.99,,2013-02-14 06:31:00,
2013-02-13 22:41:00,46.0,41.0,30.22,SE,128,0.0,-999.0,82,-99.99,,,-99.99,,2013-02-14 06:41:00,
2013-02-13 22:51:00,45.0,40.0,30.22,SE,128,0.0,-999.0,82,-99.99,,,-99.99,,2013-02-14 06:51:00,
2013-02-13 23:01:00,45.0,40.0,30.22,SE,128,0.0,-999.0,83,-99.99,,,-99.99,,2013-02-14 07:01:00,
2013-02-13 23:11:00,44.0,39.0,30.22,SE,128,0.0,-999.0,84,-99.99,,,-99.99,,2013-02-14 07:11:00,
2013-02-13 23:21:00,44.0,39.0,30.22,SE,128,0.0,-999.0,84,-99.99,,,-99.99,,2013-02-14 07:21:00,
2013-02-13 23:31:00,44.0,39.0,30.22,SE,128,0.0,-999.0,84,-99.99,,,-99.99,,2013-02-14 07:31:00,
2013-02-13 23:41:00,44.0,39.0,30.22,SE,128,0.0,-999.0,84,-99.99,,,-99.99,,2013-02-14 07:41:00,
2013-02-13 23:51:00,44.0,39.0,30.22,SE,128,0.0,-999.0,84,-99.99,,,-99.99,,2013-02-14 07:51:00,